Weather History for Salida, CO

Change the Weather History Date:

Monday, November 12, 2012

  Actual Average (KGUC) Record (KGUC)
Temperature  
Mean Temperature 28 °F -  
Max Temperature 43 °F 40 °F 59 °F (1999)
Min Temperature 14 °F 14 °F 0 °F (2012)
Degree Days  
Heating Degree Days 36    
Moisture  
Dew Point 1 °F    
Average Humidity 31    
Maximum Humidity 49    
Minimum Humidity 18    
Precipitation  
Precipitation 0.00 in - - ()
Sea Level Pressure  
Sea Level Pressure 30.38 in    
Wind  
Wind Speed 9 mph (West)    
Max Wind Speed 20 mph    
Max Gust Speed 28 mph    
Visibility 10 miles    
Events      
Averages and records for this station are not official NWS values.
T = Trace of Precipitation, MM = Missing Value Source: NWS Daily Summary

Daily Weather History Graph

Daily Weather History Graph

Search for Another Location

Airport:

Trip Planner

Search our weather history database for the weather conditions in past years. The results will help you decide how hot, cold, wet, or windy it might be!

Date:

Astronomy

Nov. 12, 2012 Rise Set
Actual Time 6:43 AM MST 4:53 PM MST
Civil Twilight 6:15 AM MST 5:21 PM MST
Nautical Twilight 5:43 AM MST 5:53 PM MST
Astronomical Twilight 5:11 AM MST 6:24 PM MST
Moon 5:12 AM MST (11/12) 3:59 PM MST (11/12)
Length of Visible Light 11h 06m
Length of Day
10h 09m
Waning Crescent, 2% of the Moon is Illuminated
Nov 12
Waning Crescent
Nov 13
New
Nov 20
First Quarter
Nov 28
Full
Dec 6
Last Quarter

Hourly Weather History & Observations

Time (MST) Temp. Windchill Dew Point Humidity Pressure Visibility Wind Dir Wind Speed Gust Speed Precip Events Conditions
12:15 AM 22.6 °F 7.9 °F -2.4 °F 34% 30.30 in 10.0 mi West 19.6 mph 27.6 mph N/A   Clear
12:35 AM 22.8 °F 11.5 °F -3.6 °F 31% 30.30 in 10.0 mi WSW 11.5 mph 23.0 mph N/A   Clear
12:55 AM 21.7 °F 12.3 °F -4.0 °F 32% 30.30 in 10.0 mi WSW 8.1 mph - N/A   Clear
1:15 AM 22.8 °F 10.4 °F -3.6 °F 31% 30.30 in 10.0 mi West 13.8 mph 18.4 mph N/A   Clear
1:35 AM 22.6 °F 11.9 °F -3.3 °F 32% 30.32 in 10.0 mi West 10.4 mph 19.6 mph N/A   Clear
1:55 AM 21.9 °F 13.4 °F -3.8 °F 32% 30.33 in 10.0 mi West 6.9 mph - N/A   Clear
2:15 AM 19.6 °F 14.5 °F -3.6 °F 36% 30.33 in 10.0 mi NNW 3.5 mph - N/A   Clear
2:35 AM 17.6 °F - -3.8 °F 39% 30.33 in 10.0 mi Calm Calm - N/A   Clear
2:55 AM 19.0 °F 6.1 °F -0.8 °F 42% 30.34 in 10.0 mi WSW 12.7 mph 17.3 mph N/A   Clear
3:15 AM 19.8 °F 10.8 °F -2.0 °F 38% 30.34 in 10.0 mi North 6.9 mph - N/A   Clear
3:55 AM 20.8 °F 6.8 °F -2.7 °F 36% 30.35 in 10.0 mi WNW 16.1 mph 19.6 mph N/A   Clear
4:15 AM 20.5 °F 10.0 °F -1.8 °F 38% 30.36 in 10.0 mi West 9.2 mph - N/A   Clear
4:35 AM 21.0 °F 10.6 °F -1.7 °F 37% 30.36 in 10.0 mi WNW 9.2 mph - N/A   Clear
4:55 AM 20.8 °F 9.7 °F -2.0 °F 37% 30.36 in 10.0 mi NW 10.4 mph 16.1 mph N/A   Clear
5:15 AM 16.7 °F 2.6 °F -3.3 °F 41% 30.37 in 10.0 mi NNW 13.8 mph 18.4 mph N/A   Clear
5:55 AM 18.3 °F 8.2 °F -2.0 °F 41% 30.38 in 10.0 mi NNW 8.1 mph - N/A   Clear
6:15 AM 15.8 °F 5.1 °F -2.2 °F 45% 30.38 in 10.0 mi North 8.1 mph - N/A   Clear
6:35 AM 14.7 °F - -1.3 °F 49% 30.38 in 10.0 mi Calm Calm - N/A   Clear
6:55 AM 18.9 °F 12.1 °F -1.1 °F 42% 30.39 in 10.0 mi SW 4.6 mph - N/A   Clear
7:15 AM 22.1 °F 11.3 °F -1.3 °F 36% 30.39 in 10.0 mi WSW 10.4 mph - N/A   Clear
7:35 AM 20.7 °F - -0.4 °F 40% 30.40 in 10.0 mi Calm Calm - N/A   Clear
7:55 AM 24.1 °F 18.2 °F -1.5 °F 33% 30.42 in 10.0 mi NE 4.6 mph - N/A   Clear
8:15 AM 26.2 °F - -1.7 °F 30% 30.42 in 10.0 mi Calm Calm - N/A   Clear
8:35 AM 27.5 °F - -1.1 °F 29% 30.44 in 10.0 mi Calm Calm - N/A   Clear
8:55 AM 28.8 °F 22.6 °F -0.9 °F 28% 30.43 in 10.0 mi NE 5.8 mph - N/A   Clear
9:15 AM 29.8 °F 24.9 °F -1.3 °F 26% 30.43 in 10.0 mi ESE 4.6 mph - N/A   Clear
9:35 AM 31.1 °F - -0.8 °F 26% 30.44 in 10.0 mi Calm Calm - N/A   Clear
9:55 AM 32.0 °F - -0.9 °F 24% 30.44 in 10.0 mi Calm Calm - N/A   Clear
10:15 AM 33.1 °F 30.0 °F -0.6 °F 24% 30.44 in 10.0 mi SSE 3.5 mph - N/A   Clear
10:35 AM 33.1 °F - -0.6 °F 24% 30.44 in 10.0 mi Calm Calm - N/A   Clear
10:55 AM 34.2 °F - 0.1 °F 24% 30.44 in 10.0 mi Calm Calm - N/A   Clear
11:15 AM 36.3 °F - 0.1 °F 22% 30.43 in 10.0 mi Calm Calm - N/A   Clear
11:35 AM 38.7 °F 31.8 °F -0.2 °F 19% 30.42 in 10.0 mi SW 10.4 mph 18.4 mph N/A   Clear
11:55 AM 40.1 °F 33.6 °F -0.0 °F 19% 30.41 in 10.0 mi SSW 10.4 mph 17.3 mph N/A   Clear
12:15 PM 40.8 °F 34.1 °F 0.7 °F 19% 30.40 in 10.0 mi SW 11.5 mph - N/A   Clear
12:35 PM 41.5 °F 35.9 °F 1.2 °F 19% 30.39 in 10.0 mi SSW 9.2 mph 19.6 mph N/A   Clear
12:55 PM 42.1 °F 35.7 °F 0.9 °F 18% 30.39 in 10.0 mi SW 11.5 mph 17.3 mph N/A   Clear
1:15 PM 41.9 °F 36.3 °F 1.6 °F 19% 30.38 in 10.0 mi SSW 9.2 mph 16.1 mph N/A   Clear
1:35 PM 42.1 °F 36.1 °F 2.1 °F 19% 30.38 in 10.0 mi SW 10.4 mph 18.4 mph N/A   Clear
1:55 PM 43.5 °F 38.9 °F 2.7 °F 18% 30.38 in 10.0 mi SSW 8.1 mph - N/A   Clear
2:15 PM 43.2 °F 37.4 °F 3.2 °F 19% 30.38 in 10.0 mi SSW 10.4 mph 16.1 mph N/A   Clear
2:35 PM 43.0 °F 36.4 °F 3.2 °F 19% 30.38 in 10.0 mi SW 12.7 mph - N/A   Clear
2:55 PM 42.8 °F 37.0 °F 3.7 °F 20% 30.38 in 10.0 mi SSW 10.4 mph - N/A   Clear
3:15 PM 41.7 °F 37.3 °F 3.9 °F 21% 30.38 in 10.0 mi South 6.9 mph - N/A   Clear
3:35 PM 41.2 °F 37.3 °F 4.1 °F 21% 30.38 in 10.0 mi SW 5.8 mph - N/A   Clear
3:55 PM 39.9 °F 34.5 °F 4.3 °F 23% 30.38 in 10.0 mi SW 8.1 mph - N/A   Clear
4:15 PM 38.7 °F 32.4 °F 4.1 °F 24% 30.38 in 10.0 mi WSW 9.2 mph 17.3 mph N/A   Clear
4:35 PM 36.0 °F 32.1 °F 3.7 °F 26% 30.38 in 10.0 mi WSW 4.6 mph - N/A   Clear
4:55 PM 34.9 °F 28.3 °F 3.7 °F 27% 30.38 in 10.0 mi WSW 8.1 mph - N/A   Clear
5:15 PM 34.2 °F 28.2 °F 3.4 °F 27% 30.38 in 10.0 mi West 6.9 mph - N/A   Clear
5:35 PM 33.8 °F 28.6 °F 3.2 °F 28% 30.39 in 10.0 mi WSW 5.8 mph - N/A   Clear
5:55 PM 33.8 °F 25.8 °F 3.2 °F 28% 30.39 in 10.0 mi WSW 10.4 mph - N/A   Clear
6:15 PM 33.1 °F 26.9 °F 3.2 °F 28% 30.39 in 10.0 mi WSW 6.9 mph - N/A   Clear
6:35 PM 32.4 °F 27.9 °F 3.6 °F 30% 30.40 in 10.0 mi SSW 4.6 mph - N/A   Clear
6:55 PM 32.0 °F 27.5 °F 3.9 °F 31% 30.40 in 10.0 mi South 4.6 mph - N/A   Clear
7:15 PM 27.7 °F 22.4 °F 3.2 °F 35% 30.40 in 10.0 mi South 4.6 mph - N/A   Clear
7:35 PM 29.5 °F - 4.5 °F 35% 30.40 in 10.0 mi Calm Calm - N/A   Clear
7:55 PM 26.8 °F - 3.9 °F 38% 30.40 in 10.0 mi Calm Calm - N/A   Clear
8:15 PM 27.5 °F 22.2 °F 4.5 °F 37% 30.40 in 10.0 mi WSW 4.6 mph - N/A   Clear
8:35 PM 26.6 °F - 4.1 °F 38% 30.40 in 10.0 mi Calm Calm - N/A   Clear
8:55 PM 30.4 °F 23.6 °F 4.8 °F 34% 30.40 in 10.0 mi NW 6.9 mph - N/A   Clear
9:15 PM 29.3 °F 24.3 °F 5.2 °F 36% 30.40 in 10.0 mi NW 4.6 mph - N/A   Clear
9:35 PM 29.8 °F 20.3 °F 4.6 °F 34% 30.39 in 10.0 mi NNW 11.5 mph - N/A   Clear
9:55 PM 29.8 °F 20.3 °F 5.0 °F 35% 30.39 in 10.0 mi NNW 11.5 mph - N/A   Clear
10:15 PM 29.8 °F 21.5 °F 5.0 °F 35% 30.39 in 10.0 mi NNW 9.2 mph - N/A   Clear
10:35 PM 29.5 °F 20.4 °F 4.8 °F 35% 30.39 in 10.0 mi NNW 10.4 mph - N/A   Clear
10:55 PM 28.9 °F 19.8 °F 5.4 °F 37% 30.39 in 10.0 mi NNW 10.4 mph 16.1 mph N/A   Clear
11:15 PM 28.4 °F 21.2 °F 5.9 °F 39% 30.38 in 10.0 mi NW 6.9 mph - N/A   Mostly Cloudy
11:35 PM 29.1 °F 20.0 °F 6.8 °F 39% 30.37 in 10.0 mi NNW 10.4 mph - N/A   Overcast
11:55 PM 28.6 °F 19.9 °F 6.8 °F 40% 30.37 in 10.0 mi NNW 9.2 mph - N/A   Mostly Cloudy